Location: Tucson
(32.2217°N, 110.9265°W)
Time: 10:16:40
(UTC-07:00)

STARLINK-3119 - Pass Details

Date: 28 September 2021
Orbit: 357 x 362 km, 70.0° (Epoch: 21 October)

Event Time Altitude Azimuth Distance (km) Brightness Sun altitude
Rises 05:33:53 0° 160° (SSE) 2,166 6.9 -9.7°
Reaches altitude 10° 05:37:01 10° 122° (ESE) 1,330 6.5 -9.1°
Maximum altitude 05:37:55 11° 104° (ESE) 1,273 6.9 -8.9°
Drops below altitude 10° 05:38:49 10° 86° (E) 1,334 7.3 -8.7°
Sets 05:41:58 0° 48° (NE) 2,188 7.6 -8.0°
